Siren, WI

12:28 AM CDT on June 29, 2017 (GMT -0500)
Burnett County

Weather History for KRZN - September, 2013

Change the Weather History Date:

Wednesday, September 25, 2013

  Actual Average Record
Temperature  
Mean Temperature 57 °F -  
Max Temperature 72 °F - - ()
Min Temperature 42 °F - - ()
Degree Days  
Heating Degree Days 8    
Growing Degree Days 7 (Base 50)    
Moisture  
Dew Point 48 °F    
Average Humidity 75    
Maximum Humidity 98    
Minimum Humidity 45    
Precipitation  
Precipitation 0.00 in - - ()
Sea Level Pressure  
Sea Level Pressure 29.96 in    
Wind  
Wind Speed 2 mph (SE)    
Max Wind Speed 10 mph    
Max Gust Speed -    
Visibility 10 miles    
Events      
Averages and records for this station are not official NWS values.
T = Trace of Precipitation, MM = Missing Value Source: NWS Daily Summary

Daily Weather History Graph

Daily Weather History Graph

Search for Another Location

Airport or City:

Trip Planner

Search our weather history database for the weather conditions in past years. The results will help you decide how hot, cold, wet, or windy it might be!

Date:

Astronomy

Sep. 25, 2013 Rise Set
Actual Time 7:00 AM CDT 7:00 PM CDT
Civil Twilight 6:30 AM CDT 7:30 PM CDT
Nautical Twilight 5:56 AM CDT 8:05 PM CDT
Astronomical Twilight 5:20 AM CDT 8:40 PM CDT
Moon 10:51 PM CDT (9/25) 1:22 PM CDT (9/25)
Length of Visible Light 12h 59m
Length of Day
12h 00m
Waning Gibbous, 64% of the Moon is Illuminated
Sep 25
Waning Gibbous
Sep 26
Last Quarter
Oct 4
New
Oct 11
First Quarter
Oct 18
Full

Hourly Weather History & Observations

Time (CDT) Temp. Windchill Dew Point Humidity Pressure Visibility Wind Dir Wind Speed Gust Speed Precip Events Conditions
12:15 AM 48.0 °F - 45.7 °F 92% 29.96 in 10.0 mi Calm Calm - N/A   Clear
12:35 AM 45.7 °F - 43.3 °F 92% 29.97 in 10.0 mi Calm Calm - N/A   Clear
12:55 AM 45.7 °F - 43.3 °F 92% 29.97 in 10.0 mi Calm Calm - N/A   Clear
1:15 AM 45.7 °F - 43.2 °F 91% 29.97 in 10.0 mi Calm Calm - N/A   Clear
1:35 AM 45.7 °F - 43.0 °F 90% 29.97 in 10.0 mi Calm Calm - N/A   Clear
1:55 AM 45.3 °F - 43.2 °F 92% 29.97 in 10.0 mi Calm Calm - N/A   Clear
2:35 AM 44.6 °F - 42.4 °F 92% 29.98 in 10.0 mi Calm Calm - N/A   Clear
2:55 AM 45.5 °F - 43.7 °F 93% 29.97 in 10.0 mi Calm Calm - N/A   Clear
3:15 AM 45.3 °F - 43.7 °F 94% 29.98 in 10.0 mi Calm Calm - N/A   Clear
3:35 AM 43.9 °F - 41.9 °F 93% 29.98 in 10.0 mi Calm Calm - N/A   Clear
3:55 AM 44.6 °F - 43.7 °F 97% 29.98 in 10.0 mi Calm Calm - N/A   Clear
4:35 AM 44.4 °F 42.9 °F 43.2 °F 95% 29.98 in 10.0 mi SE 3.5 mph - N/A   Clear
4:55 AM 44.6 °F - 43.7 °F 97% 29.98 in 10.0 mi Calm Calm - N/A   Clear
5:15 AM 46.9 °F - 45.9 °F 96% 29.98 in 10.0 mi Calm Calm - N/A   Clear
5:35 AM 43.0 °F - 41.9 °F 96% 29.98 in 10.0 mi Calm Calm - N/A   Clear
5:55 AM 42.4 °F - 41.0 °F 95% 29.99 in 10.0 mi Calm Calm - N/A   Clear
6:15 AM 43.7 °F - 42.6 °F 96% 29.99 in 10.0 mi Calm Calm - N/A   Clear
6:35 AM 48.4 °F - 47.8 °F 98% 29.99 in 10.0 mi Calm Calm - N/A   Clear
6:55 AM 46.0 °F 44.8 °F 45.0 °F 96% 30.00 in 10.0 mi SE 3.5 mph - N/A   Clear
7:15 AM 48.6 °F - 47.7 °F 97% 30.00 in 10.0 mi SE 3.5 mph - N/A   Clear
7:35 AM 48.9 °F - 47.8 °F 96% 30.00 in 7.0 mi SE 3.5 mph - N/A   Clear
7:55 AM 49.5 °F - 48.4 °F 96% 30.00 in 7.0 mi SE 3.5 mph - N/A   Clear
8:15 AM 50.4 °F - 49.1 °F 95% 30.00 in 10.0 mi Calm Calm - N/A   Clear
8:35 AM 52.3 °F - 50.0 °F 92% 30.00 in 10.0 mi Calm Calm - N/A   Clear
8:55 AM 54.0 °F - 50.9 °F 89% 30.00 in 10.0 mi SE 4.6 mph - N/A   Clear
9:15 AM 55.4 °F - 50.9 °F 85% 30.00 in 10.0 mi SSE 3.5 mph - N/A   Clear
9:35 AM 56.7 °F - 51.1 °F 82% 30.00 in 10.0 mi Calm Calm - N/A   Clear
9:55 AM 59.0 °F - 52.0 °F 78% 30.00 in 10.0 mi SE 3.5 mph - N/A   Clear
10:15 AM 60.3 °F - 52.3 °F 75% 30.00 in 10.0 mi SE 3.5 mph - N/A   Clear
10:35 AM 62.4 °F - 52.9 °F 71% 30.00 in 10.0 mi Calm Calm - N/A   Clear
10:55 AM 64.6 °F - 53.1 °F 66% 30.00 in 10.0 mi SSE 4.6 mph - N/A   Clear
11:15 AM 66.2 °F - 52.7 °F 62% 30.00 in 10.0 mi SE 6.9 mph - N/A   Clear
11:35 AM 67.3 °F - 52.3 °F 59% 30.00 in 10.0 mi ESE 6.9 mph - N/A   Clear
11:55 AM 68.4 °F - 52.0 °F 56% 29.99 in 10.0 mi SE 6.9 mph - N/A   Clear
12:15 PM 68.9 °F - 50.9 °F 53% 29.99 in 10.0 mi SE 8.1 mph - N/A   Clear
12:35 PM 69.8 °F - 49.6 °F 49% 29.98 in 10.0 mi South 10.4 mph - N/A   Clear
1:15 PM 70.3 °F - 49.5 °F 47% 29.97 in 10.0 mi South 8.1 mph - N/A   Clear
1:55 PM 71.2 °F - 50.2 °F 47% 29.95 in 10.0 mi South 5.8 mph - N/A   Clear
2:15 PM 71.6 °F - 49.8 °F 46% 29.94 in 10.0 mi SSE 9.2 mph - N/A   Clear
2:35 PM 71.2 °F - 49.5 °F 46% 29.94 in 10.0 mi SE 8.1 mph - N/A   Clear
2:55 PM 71.8 °F - 49.5 °F 45% 29.94 in 10.0 mi SSE 3.5 mph - N/A   Clear
3:15 PM 72.0 °F - 50.0 °F 46% 29.93 in 10.0 mi ESE 5.8 mph - N/A   Clear
3:55 PM 71.8 °F - 50.2 °F 46% 29.93 in 10.0 mi SE 6.9 mph - N/A   Clear
4:15 PM 71.8 °F - 49.6 °F 45% 29.93 in 10.0 mi SE 4.6 mph - N/A   Clear
4:35 PM 72.1 °F - 49.8 °F 45% 29.92 in 10.0 mi SE 6.9 mph - N/A   Clear
4:55 PM 70.7 °F - 50.2 °F 48% 29.93 in 10.0 mi SE 4.6 mph - N/A   Clear
5:15 PM 71.6 °F - 50.2 °F 47% 29.92 in 10.0 mi SE 6.9 mph - N/A   Clear
5:35 PM 71.1 °F - 50.4 °F 48% 29.92 in 10.0 mi SE 8.1 mph - N/A   Clear
5:55 PM 70.3 °F - 50.4 °F 49% 29.93 in 10.0 mi SE 5.8 mph - N/A   Clear
6:15 PM 69.3 °F - 50.9 °F 52% 29.92 in 10.0 mi SE 4.6 mph - N/A   Clear
6:35 PM 68.0 °F - 50.4 °F 53% 29.92 in 10.0 mi SSE 4.6 mph - N/A   Clear
6:55 PM 66.4 °F - 50.2 °F 56% 29.92 in 10.0 mi SE 3.5 mph - N/A   Clear
7:15 PM 63.3 °F - 50.9 °F 64% 29.92 in 10.0 mi SE 3.5 mph - N/A   Clear
7:35 PM 59.9 °F - 51.6 °F 74% 29.92 in 10.0 mi Calm Calm - N/A   Clear
7:55 PM 60.4 °F - 50.9 °F 71% 29.93 in 10.0 mi SE 3.5 mph - N/A   Clear
8:15 PM 57.4 °F - 49.8 °F 76% 29.93 in 10.0 mi SE 3.5 mph - N/A   Clear
8:35 PM 58.5 °F - 49.8 °F 73% 29.93 in 10.0 mi SE 3.5 mph - N/A   Clear
8:55 PM 58.5 °F - 49.8 °F 73% 29.93 in 10.0 mi ESE 3.5 mph - N/A   Clear
9:15 PM 57.9 °F - 49.8 °F 74% 29.94 in 10.0 mi ESE 3.5 mph - N/A   Clear
9:35 PM 57.4 °F - 49.3 °F 74% 29.93 in 10.0 mi SE 4.6 mph - N/A   Clear
9:55 PM 57.2 °F - 49.1 °F 74% 29.94 in 10.0 mi SE 3.5 mph - N/A   Clear
10:15 PM 56.7 °F - 48.6 °F 74% 29.94 in 10.0 mi ESE 4.6 mph - N/A   Clear
10:35 PM 55.2 °F - 48.0 °F 77% 29.94 in 10.0 mi SE 3.5 mph - N/A   Clear
10:55 PM 55.2 °F - 48.2 °F 77% 29.95 in 10.0 mi Calm Calm - N/A   Clear
11:15 PM 50.0 °F - 45.7 °F 85% 29.96 in 10.0 mi Calm Calm - N/A   Clear
11:35 PM 48.0 °F - 45.3 °F 90% 29.96 in 10.0 mi Calm Calm - N/A   Clear
11:55 PM 47.7 °F - 45.9 °F 93% 29.97 in 10.0 mi Calm Calm - N/A   Clear